Location: Unspecified
(58.7730°N, 5.8460°E)
Time: 04:38:40
(UTC+02:00)

Cosmos 2058 - Visible Passes

Search period start: 29 July 2015 00:00
Search period end: 08 August 2015 00:00
Orbit: 565 x 590 km, 82.5° (Epoch: 28 July)

Date Brightness Start Highest point End Pass type
(mag) Time Alt. Az. Time Alt. Az. Time Alt. Az.
29 Jul 6.0 02:53:41 10° NNE 02:55:15 12° NE 02:56:56 10° ENE visible
30 Jul 5.9 02:57:32 10° NNE 02:59:44 14° NE 03:02:04 10° E visible
31 Jul 5.7 03:01:32 10° NNE 03:04:13 17° NE 03:06:59 10° E visible
01 Aug 5.6 03:05:36 10° N 03:08:40 20° ENE 03:11:48 10° ESE visible
02 Aug 5.2 03:09:44 10° N 03:13:06 24° ENE 03:16:31 10° ESE visible
03 Aug 4.9 03:13:53 10° N 03:17:30 29° ENE 03:21:09 10° SE visible
04 Aug 4.5 03:18:05 10° N 03:21:54 35° ENE 03:25:43 10° SE visible
05 Aug 4.1 03:22:17 10° N 03:26:15 43° ENE 03:30:14 10° SE visible
06 Aug 5.8 01:50:59 10° NNE 01:52:31 12° NE 01:54:12 10° ENE visible
06 Aug 3.7 03:26:31 10° N 03:30:36 53° ENE 03:34:41 10° SSE visible
07 Aug 5.7 01:54:48 10° NNE 01:57:01 14° NE 01:59:19 10° E visible
07 Aug 3.2 03:30:46 10° N 03:34:55 67° ENE 03:39:03 10° SSE visible
